www.pogodaiklimat.ru

Погода и климат >> Архив погоды >> Россия >> Саратовская область >> Саратов


АРХИВ ПОГОДЫ в Саратове

Время (UTC), дата Ветер
(напр.,м/с)
 
Видим.   Явления Облачность Т
(С)
Тd
(С)
f
(%)
Тe
(С)
Тes
(С)
Комфортность P
(гПа)
Po
(гПа)
Тmin
(С)
Tmax
(С)
R
(мм)
R24
(мм)
S
(см)
12 18.05 СЗ 6 20 км 4/0
[Ci fib]
+20.2 +4.0 34 +20 +24 по сезону 1013.6 995.5
15 18.05 СЗ 6
{10}
20 км 3/0
[Ci fib]
+20.4 +3.7 33 +21 +21 комфорт 1012.1 994.0 +20.7
18 18.05 З 4
{10}
10 км 4/3 1500 м
[Sc Ac trans]
+17.0 +4.3 43 +17 +17 тепло 1012.2 993.8
21 18.05 СЗ 2 10 км ясно +14.0 +5.0 55 +14 +14 по сезону 1012.1 993.6
00 19.05 СЗ 3 10 км ясно +11.7 +3.3 56 +10 +10 по сезону 1012.9 994.3
03 19.05 СЗ 3 20 км ясно +12.1 +4.4 59 +11 +12 по сезону 1013.0 994.4 +9.4
06 19.05 СЗ 3 20 км ясно +16.2 +3.1 41 +16 +25 по сезону 1013.0 994.6
09 19.05 З 4 20 км 6/6 1500 м
[Sc]
+18.9 +1.8 32 +19 +23 тепло 1011.6 993.4
12 19.05 З 9-14
{14}
20 км 6/6 1500 м
[Cu hum]
+21.3 +1.7 27 +21 +22 комфорт 1009.8 991.8
15 19.05 С 6-11
{15}
20 км 1/0
[Ac trans]
+18.3 +1.1 31 +18 +18 по сезону 1011.4 993.2 +21.3
18 19.05 С 4
{14}
10 км ясно +13.0 -0.3 40 +12 +12 прохладно 1014.9 996.2
21 19.05 С 2 10 км ясно +8.4 +0.1 56 +7 +7 холодно 1017.0 998.0
00 20.05 С 2 10 км ясно +5.6 -0.1 67 +3 +3 очень
холодно
1018.4 999.2
03 20.05 СЗ 3 20 км 1/0
[Ci fib]
+6.5 +0.1 64 +4 +5 очень
холодно
1019.8 1000.6 +4.2
06 20.05 С 5 20 км 4/4 1000 м
[Sc]
+9.9 -1.0 47 +7 +11 очень
холодно
1020.6 1001.7
09 20.05 С 5-10
{10}
20 км 6/6 1500 м
[Sc]
+12.8 -1.7 37 +11 +15 холодно 1020.2 1001.5
12 20.05 С 7
{10}
20 км 6/6 1500 м
[Sc]
+15.3 -1.1 32 +14 +15 холодно 1019.2 1000.6
15 20.05 С 6 20 км 6/6 1500 м
[Sc]
+14.9 -1.4 33 +13 +14 прохладно 1018.7 1000.1 +16.0
18 20.05 10 км 6/0
[Ac trans]
+11.0 +0.9 50 1020.3 1001.6
21 20.05 10 км 8/0
[Ac trans]
+11.2 +0.6 48 1020.8 1002.0
00 21.05 СЗ 2 10 км 4/0
[Ac trans]
+9.4 -0.1 51 +8 +8 прохладно 1021.5 1002.5
03 21.05 СЗ 2 20 км 4/0
[Ci fib]
+10.8 +1.8 54 +10 +12 прохладно 1021.9 1003.0 +8.6
06 21.05 СВ 2 20 км 1/1 1500 м
[Sc]
+14.9 +1.1 39 +15 +25 по сезону 1022.5 1003.8
09 21.05 ЮВ 3 20 км 6/6 1500 м
[Cu med, cong]
+16.5 +3.0 40 +16 +22 прохладно 1021.8 1003.2
12 21.05 Ю 5 20 км 8/4 1500 м
[Sc Ac trans]
+18.6 +2.9 35 +18 +20 прохладно 1020.0 1001.7
15 21.05 З 4 20 км 9/0
[Ac trans Ci fib]
+20.9 +1.6 28 +21 +22 комфорт 1018.3 1000.1 +20.9
18 21.05 СЗ 3 10 км 9/0
[Ci fib]
+16.7 +1.7 36 +17 +17 по сезону 1018.8 1000.3
21 21.05 СЗ 2 10 км 9/0
[Ci fib]
+15.8 +0.2 35 +16 +16 тепло 1018.9 1000.4
00 22.05 З 4 10 км 8/0
[Ci fib]
+15.0 +1.2 39 +14 +14 тепло 1018.6 1000.0
03 22.05 ЮЗ 6
{11}
20 км 6/0
[Ci fib]
+16.6 +2.5 39 +16 +16 тепло 1018.0 999.5 +14.4
06 22.05 ЮЗ 5 20 км 9/0
[Ci fib]
+20.4 +4.6 35 +21 +26 комфорт 1017.5 999.3
09 22.05 Ю 6 20 км 9/1 1500 м
[Cu hum Ci fib]
+23.0 +5.0 31 +23 +28 комфорт 1016.2 998.1
12 22.05 Ю 6 20 км 9/1 1500 м
[Cu hum Ci fib]
+23.9 +3.1 26 +23 +26 комфорт 1014.2 996.3
15 22.05 ЮЗ 5 20 км 9/4 1500 м
[Sc diur, vesp Ci fib]
+23.4 +6.8 34 +24 +24 комфорт 1012.6 994.8 +23.9
18 22.05 ЮЗ 4 10 км 4/1 1500 м
[Sc Ac trans Ci fib]
+19.4 +6.2 42 +20 +20 тепло 1013.4 995.2
21 22.05 ЮЗ 2 10 км 8/0
[Ac trans Ci fib]
+17.0 +4.9 45 +17 +17 тепло 1013.2 994.8
00 23.05 Ю 3 10 км 9/3 1500 м
[Sc Ac trans Ci fib]
+13.1 +6.4 64 +12 +12 по сезону 1012.3 993.8
03 23.05 Ю 3 20 км 9/1 1500 м
[Sc Ac trans Ci fib]
+13.4 +8.4 72 +12 +13 по сезону 1010.8 992.4 +12.1
06 23.05 ЮВ 4 20 км 8/0
[Ac trans Ci fib]
+18.1 +7.7 51 +18 +23 тепло 1009.5 991.3
09 23.05 Ю 6 20 км 9/4 1500 м
[Cu hum Ac trans Ci fib]
+21.0 +11.3 54 +23 +25 комфорт 1007.9 989.9
12 23.05 Ю 5-10
{10}
20 км 9/3 1500 м
[Cb calv Ac trans Ci fib]
+21.4 +11.8 54 +23 +26 комфорт 1006.0 988.2
15 23.05 Ю 5 20 км 8/4 1500 м
[Sc diur, vesp Ac trans Ci fib]
+20.4 +11.4 56 +22 +23 комфорт 1004.8 986.9 +21.4
18 23.05 Ю 4
{10}
10 км 8/3 1500 м
[Sc diur, vesp Ac trans Ci fib]
+17.8 +12.4 71 +18 +18 тепло 1005.3 987.2
21 23.05 Ю 3 10 км 8/0
[Ac trans Ci fib]
+16.2 +12.2 77 +16 +16 тепло 1004.6 986.4
00 24.05 СЗ 2 10 км 5/0
[Ac trans Ci fib]
+14.8 +11.1 78 +15 +15 тепло 1003.7 985.7
03 24.05 нст 1 20 км 6/0
[Ac trans Ci fib]
+15.6 +12.3 81 +16 +18 тепло 1004.0 985.8 +14.6
06 24.05 20 км 9/1 1500 м
[Cu hum Ac trans Ci fib]
+19.6 +13.7 69 1004.6 986.6
09 24.05 С 5-10
{10}
20 км 9/6 1050 м
[Cb calv Ac trans Ci fib]
+20.9 +13.2 61 +23 +26 комфорт 1006.3 988.5
12 24.05 СВ 5-10
{11}
20 км 6/4 900 м
[Cb calv Ac trans]
+18.4 +11.5 64 +18 +21 прохладно 1008.6 990.4
15 24.05 СВ 5
{11}
20 км 8/8 1500 м
[Sc]
+18.2 +10.8 62 +18 +18 по сезону 1010.6 992.4 +21.5
18 24.05 В 5
{11}
10 км ясно +14.2 +5.8 57 +13 +13 прохладно 1013.1 994.6
21 24.05 В 5 10 км ясно +10.0 +1.4 55 +7 +7 очень
холодно
1016.2 997.4
00 25.05 В 5 10 км ясно +8.6 +1.9 63 +5 +5 очень
холодно
1017.9 998.9
03 25.05 В 5 20 км ясно +8.2 +1.3 62 +5 +6 очень
холодно
1019.2 1000.2 +7.4
06 25.05 В 6 20 км 3/0
[Ci fib]
+12.8 +1.0 44 +11 +15 холодно 1019.0 1000.3

 

Местоположение метеостанции Саратов (Саратовская область, Россия): широта 51.57 долгота 46.03 высота над уровнем моря 156 м.

В архиве по умолчанию представлена погода в Саратове за последнюю неделю. Архивные данные за месяц целиком и за предыдущие месяцы, начиная с января 2011 года, Вы можете получить, выбрав интересующий диапазон дат из раскрывающегося списка и нажав кнопку "Ввод!".


*Определитесь, кто Вы:
робот инопланетянин человек

Внимание! Время в таблицах - всемирное. Для получения местного времени необходимо прибавить поправку, которая равна 4 ч.

Смотрите также архив погоды в соседних городах и на ближайших метеорологических станциях:

Погода в Саратове ЮВ (Саратовская область, Россия) (2 км)
Погода в Октябрьском Городке (Саратовская область, Россия) (41 км)
Погода в Маркс (Саратовская область, Россия) (50 км)
Погода в Сплавнухе (Саратовская область, Россия) (72 км)
Погода в Аткарске (Саратовская область, Россия) (77 км)
Погода в Карабулаке (Саратовская область, Россия) (88 км)
Погода в Петровске (Саратовская область, Россия) (90 км)
Погода в Красном Куте (Саратовская область, Россия) (95 км)
Погода в Калининске (Саратовская область, Россия) (106 км)
Погода в Рудне (Волгоградская область, Россия) (131 км)

Пояснения к столбцам:

Ветер - указаны скорость ветра в м/с - средняя за 10 мин, порывы в срок и между сроками (в фигурных скобках) и направление, откуда дует ветер: С - северный, СВ - северо-восточный, В - восточный, ЮВ - юго-восточный, Ю - южный, ЮЗ - юго-западный, З - западный, СЗ - северо-западный.
Видимость - горизонтальная дальность видимости в метрах или километрах. При видимости от 1 до 10 км при отсутствии осадков обычно наблюдается дымка, при ухудшении видимости до 1 км и менее - туман. В сухую погоду видимость может ухудшаться дымом, пылью или мглою.
Явления - указаны атмосферные явления, наблюдавшиеся в срок или в последний час перед сроком; фигурными скобками обозначены явления, наблюдавшиеся между сроками (за 1-3 часа до срока); квадратными скобками обозначены град или гололедные отложения с указанием их диаметра в мм.
Облачность - указаны через наклонную черту общая и нижняя облачность в баллах и высота нижней границы облаков в метрах; квадратными скобками обозначены формы облаков: Ci - перистые, Cs - перисто-слоистые, Cc - перисто-кучевые, Ac - высококучевые, As - высокослоистые, Sc - слоисто-кучевые, Ns - слоисто-дождевые, Cu - кучевые, Cb - кучево-дождевые. Подробнее классификацию облаков см. в Атласе облаков (PDF).
T - Температура воздуха - температура, измеренная на высоте 2 м над землей.
Td - Температура точки росы - температура, при понижении до которой содержащийся в воздухе водяной пар достигнет насыщения.
f - Относительная влажность воздуха - влажноcть воздуха, измеренная на высоте 2 м над землей.
Te - Эффективная температура - температура, которую ощущает одетый по сезону человек в тени. Характеристика душности погоды. При расчете учитывается влияние влажности воздуха и скорости ветра на теплоощущения человека.
Tes - Эффективная температура на солнце - температура, которую ощущает человек, с поправкой на солнечный нагрев. Характеристика знойности погоды. Зависит от высоты солнца над горизонтом, облачности и скорости ветра. Ночью, в пасмурную погоду, а также при ветре 12 м/с и более поправка равна нулю.
P - Атмосферное давление - приведенное к уровню моря атмосферное давление.
Po - Атмосферное давление - измеренное на уровне метеостанции атмосферное давление.
Tmin - Минимальная температура - минимум температуры воздуха на высоте 2 м над землей.
Tmax - Максимальная температура - максимум температуры воздуха на высоте 2 м над землей.
R - Количество осадков - Количество выпавших осадков за период времени, мм. При наведении курсора мыши на число - период времени, за который выпало указанное количество осадков.
R24 - Количество осадков - Количество выпавших осадков за 24 часа, мм.
S - Снежный покров - Высота снежного покрова, см. При наведении курсора мыши на число - состояние снежного покрова и степень покрытия местности в баллах.